Savanna, IA

8:23 PM CDT on August 22, 2017 (GMT -0500)
Tri-Township

Weather History for KSFY - February, 2014

Change the Weather History Date:

Sunday, February 9, 2014

  Actual Average (KCWI) Record (KCWI)
Temperature  
Mean Temperature 4 °F -  
Max Temperature 16 °F 30 °F 57 °F (2009)
Min Temperature -8 °F 12 °F -20 °F (1951)
Degree Days  
Heating Degree Days 61    
Moisture  
Dew Point 0 °F    
Average Humidity 77    
Maximum Humidity 89    
Minimum Humidity 62    
Precipitation  
Precipitation 0.00 in - - ()
Sea Level Pressure  
Sea Level Pressure 30.23 in    
Wind  
Wind Speed 3 mph (West)    
Max Wind Speed 13 mph    
Max Gust Speed 17 mph    
Visibility 8 miles    
Events Fog , Snow    
Averages and records for this station are not official NWS values.
T = Trace of Precipitation, MM = Missing Value Source: NWS Daily Summary

Daily Weather History Graph

Daily Weather History Graph

Search for Another Location

Airport or City:

Trip Planner

Search our weather history database for the weather conditions in past years. The results will help you decide how hot, cold, wet, or windy it might be!

Date:

Astronomy

Feb. 09, 2014 Rise Set
Actual Time 7:04 AM CST 5:25 PM CST
Civil Twilight 6:35 AM CST 5:54 PM CST
Nautical Twilight 6:02 AM CST 6:27 PM CST
Astronomical Twilight 5:29 AM CST 7:00 PM CST
Moon 1:04 PM CST (2/9) 3:11 AM CST (2/9)
Length of Visible Light 11h 19m
Length of Day
10h 21m
Waxing Gibbous, 77% of the Moon is Illuminated
Feb 9
Waxing Gibbous
Feb 14
Full
Feb 22
Last Quarter
Mar 1
New
Mar 8
First Quarter

Hourly Weather History & Observations

Time (CST) Temp. Windchill Dew Point Humidity Pressure Visibility Wind Dir Wind Speed Gust Speed Precip Events Conditions
12:15 AM 8.6 °F - 5.5 °F 87% 30.14 in 7.0 mi Calm Calm - N/A   Scattered Clouds
12:35 AM 7.0 °F - 3.6 °F 86% 30.14 in 10.0 mi Calm Calm - N/A   Mostly Cloudy
12:55 AM 8.4 °F - 5.7 °F 89% 30.15 in 10.0 mi Calm Calm - N/A   Scattered Clouds
1:15 AM 10.2 °F - 7.5 °F 89% 30.15 in 10.0 mi Calm Calm - N/A   Mostly Cloudy
1:35 AM 9.9 °F 3.4 °F 6.8 °F 87% 30.14 in 7.0 mi NNW 3.5 mph - N/A   Scattered Clouds
1:55 AM 10.6 °F 4.3 °F 7.7 °F 88% 30.15 in 7.0 mi WNW 3.5 mph - N/A   Mostly Cloudy
2:15 AM 10.9 °F - 7.7 °F 87% 30.15 in 10.0 mi Calm Calm - N/A   Mostly Cloudy
2:35 AM 10.4 °F - 7.5 °F 88% 30.16 in 7.0 mi Calm Calm - N/A   Mostly Cloudy
2:55 AM 10.0 °F - 6.8 °F 87% 30.16 in 7.0 mi Calm Calm - N/A   Scattered Clouds
3:15 AM 9.5 °F 1.2 °F 6.6 °F 88% 30.15 in 7.0 mi NNW 4.6 mph - N/A   Scattered Clouds
3:35 AM 9.5 °F 3.0 °F 6.6 °F 88% 30.15 in 10.0 mi NW 3.5 mph - N/A   Scattered Clouds
3:55 AM 8.4 °F -0.1 °F 5.2 °F 87% 30.16 in 7.0 mi NW 4.6 mph - N/A   Clear
4:15 AM 7.9 °F -0.7 °F 4.8 °F 87% 30.16 in 7.0 mi NNW 4.6 mph - N/A   Clear
4:35 AM 7.7 °F - 4.8 °F 88% 30.16 in 7.0 mi Calm Calm - N/A   Clear
4:55 AM 7.2 °F - 3.9 °F 87% 30.17 in 5.0 mi Calm Calm - N/A   Clear
5:15 AM 7.3 °F - 4.1 °F 87% 30.17 in 5.0 mi Calm Calm - N/A   Clear
5:16 AM 6.8 °F - 3.2 °F 85% 30.17 in 5.0 mi Calm Calm - N/A   Clear
5:35 AM 5.5 °F - 2.5 °F 87% 30.17 in 3.0 mi Calm Calm - N/A   Clear
5:55 AM -1.5 °F - -5.8 °F 82% 30.18 in 0.2 mi Calm Calm - N/A Fog Light Freezing Fog
6:15 AM -2.0 °F - -5.8 °F 84% 30.17 in 0.2 mi Calm Calm - N/A Snow Snow
6:35 AM -6.5 °F - -11.6 °F 79% 30.18 in 0.2 mi Calm Calm - N/A Snow Snow
6:55 AM -2.7 °F - -6.7 °F 83% 30.18 in 0.2 mi Calm Calm - N/A Snow Light Snow
7:15 AM -6.7 °F - -11.2 °F 81% 30.19 in 0.5 mi Calm Calm - N/A Snow Light Snow
8:15 AM -8.0 °F - -12.8 °F 79% 30.21 in 4.0 mi Calm Calm - N/A   Haze
8:35 AM -4.0 °F - -8.5 °F 81% 30.21 in 3.0 mi Calm Calm - N/A   Haze
8:55 AM -5.1 °F - -10.7 °F 77% 30.21 in 4.0 mi Calm Calm - N/A   Haze
9:15 AM 0.1 °F - -3.8 °F 83% 30.21 in 5.0 mi Calm Calm - N/A   Clear
9:35 AM 0.9 °F -6.9 °F -3.1 °F 83% 30.22 in 5.0 mi West 3.5 mph - N/A   Clear
9:55 AM 2.3 °F - -1.5 °F 84% 30.21 in 5.0 mi Calm Calm - N/A   Clear
10:15 AM 5.9 °F -3.0 °F 3.0 °F 88% 30.22 in 7.0 mi WSW 4.6 mph - N/A   Clear
10:35 AM 8.4 °F -1.6 °F 5.5 °F 88% 30.23 in 7.0 mi WSW 5.8 mph - N/A   Clear
10:55 AM 8.6 °F 2.0 °F 5.7 °F 88% 30.23 in 10.0 mi SW 3.5 mph - N/A   Clear
11:15 AM 10.4 °F 0.8 °F 7.7 °F 89% 30.23 in 10.0 mi SW 5.8 mph - N/A   Clear
11:35 AM 11.8 °F 2.5 °F 9.0 °F 88% 30.21 in 10.0 mi WSW 5.8 mph - N/A   Clear
11:55 AM 12.4 °F 2.0 °F 9.5 °F 88% 30.21 in 10.0 mi SW 6.9 mph - N/A   Clear
12:15 PM 13.6 °F 4.6 °F 9.3 °F 83% 30.19 in 10.0 mi WNW 5.8 mph - N/A   Clear
12:35 PM 14.5 °F 5.7 °F 7.7 °F 74% 30.19 in 10.0 mi WSW 5.8 mph - N/A   Clear
12:55 PM 14.9 °F 4.0 °F 7.2 °F 71% 30.19 in 10.0 mi WSW 8.1 mph - N/A   Clear
1:15 PM 15.8 °F 7.2 °F 7.2 °F 69% 30.19 in 10.0 mi WSW 5.8 mph - N/A   Clear
1:35 PM 16.5 °F 3.6 °F 7.0 °F 66% 30.20 in 10.0 mi WSW 11.5 mph - N/A   Clear
1:55 PM 15.8 °F 3.4 °F 5.5 °F 64% 30.21 in 10.0 mi West 10.4 mph 16.1 mph N/A   Clear
2:15 PM 15.6 °F 1.8 °F 5.0 °F 63% 30.21 in 10.0 mi West 12.7 mph 17.3 mph N/A   Clear
2:35 PM 15.8 °F 3.4 °F 5.7 °F 64% 30.22 in 10.0 mi West 10.4 mph - N/A   Clear
2:55 PM 15.8 °F 5.1 °F 5.4 °F 63% 30.22 in 10.0 mi West 8.1 mph - N/A   Clear
3:15 PM 15.6 °F 4.9 °F 5.0 °F 63% 30.23 in 10.0 mi West 8.1 mph - N/A   Clear
3:35 PM 15.4 °F 3.0 °F 4.8 °F 63% 30.23 in 10.0 mi West 10.4 mph - N/A   Clear
3:55 PM 14.9 °F 4.0 °F 4.1 °F 62% 30.23 in 10.0 mi West 8.1 mph - N/A   Clear
4:15 PM 14.0 °F 3.9 °F 3.2 °F 62% 30.24 in 10.0 mi WSW 6.9 mph - N/A   Clear
4:35 PM 11.8 °F 1.3 °F 2.3 °F 66% 30.24 in 10.0 mi WSW 6.9 mph - N/A   Clear
4:55 PM 10.4 °F 0.8 °F 1.4 °F 67% 30.25 in 10.0 mi WSW 5.8 mph - N/A   Clear
5:15 PM 9.0 °F -2.2 °F 0.5 °F 69% 30.26 in 10.0 mi WSW 6.9 mph - N/A   Clear
5:35 PM 7.9 °F -0.7 °F -0.6 °F 68% 30.26 in 10.0 mi WSW 4.6 mph - N/A   Clear
5:55 PM 7.3 °F -2.8 °F -0.9 °F 69% 30.26 in 10.0 mi West 5.8 mph - N/A   Clear
6:15 PM 7.2 °F -6.4 °F -1.7 °F 67% 30.27 in 10.0 mi West 9.2 mph - N/A   Clear
6:35 PM 6.6 °F -6.1 °F -2.6 °F 66% 30.29 in 10.0 mi WNW 8.1 mph - N/A   Clear
6:55 PM 5.9 °F -8.0 °F -3.5 °F 65% 30.29 in 10.0 mi West 9.2 mph - N/A   Clear
7:15 PM 5.0 °F -10.8 °F -4.2 °F 66% 30.30 in 10.0 mi West 11.5 mph 16.1 mph N/A   Clear
7:35 PM 3.6 °F -11.8 °F -5.1 °F 67% 30.31 in 10.0 mi West 10.4 mph - N/A   Clear
7:55 PM 3.2 °F -13.1 °F -5.3 °F 68% 30.32 in 10.0 mi WNW 11.5 mph - N/A   Clear
8:15 PM 2.8 °F -12.7 °F -5.8 °F 67% 30.32 in 10.0 mi WNW 10.4 mph - N/A   Clear
8:35 PM 2.1 °F -13.6 °F -6.2 °F 68% 30.33 in 10.0 mi WNW 10.4 mph - N/A   Clear
8:55 PM 1.9 °F -13.8 °F -6.5 °F 68% 30.33 in 10.0 mi WNW 10.4 mph - N/A   Clear
9:15 PM 1.4 °F -14.5 °F -6.9 °F 68% 30.33 in 10.0 mi WNW 10.4 mph - N/A   Clear
9:35 PM 0.9 °F -11.9 °F -7.2 °F 69% 30.33 in 10.0 mi WNW 6.9 mph - N/A   Clear
9:55 PM 0.1 °F -12.8 °F -7.6 °F 70% 30.33 in 10.0 mi WNW 6.9 mph - N/A   Clear
10:15 PM -0.9 °F -8.9 °F -8.5 °F 70% 30.33 in 10.0 mi NNW 3.5 mph - N/A   Clear
10:35 PM -1.3 °F -11.4 °F -8.5 °F 72% 30.34 in 10.0 mi NNW 4.6 mph - N/A   Clear
10:55 PM -0.8 °F -8.7 °F -8.0 °F 72% 30.34 in 10.0 mi NW 3.5 mph - N/A   Clear
11:15 PM -1.7 °F -9.7 °F -8.7 °F 72% 30.35 in 10.0 mi NW 3.5 mph - N/A   Clear
11:35 PM -2.0 °F -10.1 °F -8.7 °F 73% 30.36 in 10.0 mi WNW 3.5 mph - N/A   Clear
11:55 PM -2.2 °F - -9.0 °F 73% 30.36 in 10.0 mi Calm Calm - N/A   Clear